Time,TemperatureF,DewpointF,PressureIn,WindDirection,WindDirectionDegrees,WindSpeedMPH,WindSpeedGustMPH,Humidity,HourlyPrecipIn,Conditions,Clouds,dailyrainin,SoftwareType,DateUTC
2013-11-25 00:07:00,19.2,6.0,30.35,WSW,248,0.0,8.0,57,0.00,,,0.00,weatherlink.com 1.10,2013-11-25 05:07:00,
2013-11-25 00:23:00,19.1,6.0,30.36,West,274,0.0,5.0,58,0.00,,,0.00,weatherlink.com 1.10,2013-11-25 05:23:00,
2013-11-25 00:37:00,19.2,7.0,30.35,NW,324,1.0,5.0,58,0.00,,,0.00,weatherlink.com 1.10,2013-11-25 05:37:00,
2013-11-25 01:09:00,18.7,7.0,30.36,WNW,297,0.0,5.0,60,0.00,,,0.00,weatherlink.com 1.10,2013-11-25 06:09:00,
2013-11-25 01:30:00,18.3,6.0,30.37,NW,313,0.0,4.0,60,0.00,,,0.00,weatherlink.com 1.10,2013-11-25 06:30:00,
2013-11-25 01:38:00,18.1,6.0,30.38,NW,313,2.0,2.0,60,0.00,,,0.00,weatherlink.com 1.10,2013-11-25 06:38:00,
2013-11-25 01:59:00,17.8,6.0,30.39,NW,306,1.0,8.0,61,0.00,,,0.00,weatherlink.com 1.10,2013-11-25 06:59:00,
2013-11-25 02:10:00,17.6,7.0,30.38,NW,304,1.0,4.0,63,0.00,,,0.00,weatherlink.com 1.10,2013-11-25 07:10:00,
2013-11-25 02:27:00,17.4,7.0,30.38,West,281,0.0,3.0,63,0.00,,,0.00,weatherlink.com 1.10,2013-11-25 07:27:00,
2013-11-25 02:40:00,17.2,7.0,30.37,NW,311,1.0,2.0,64,0.00,,,0.00,weatherlink.com 1.10,2013-11-25 07:40:00,
2013-11-25 02:55:00,16.8,7.0,30.38,NNW,338,0.0,4.0,65,0.00,,,0.00,weatherlink.com 1.10,2013-11-25 07:55:00,
2013-11-25 03:14:00,16.5,7.0,30.39,WNW,290,1.0,3.0,66,0.00,,,0.00,weatherlink.com 1.10,2013-11-25 08:14:00,
2013-11-25 03:28:00,16.4,7.0,30.39,NNW,327,1.0,4.0,67,0.00,,,0.00,weatherlink.com 1.10,2013-11-25 08:28:00,
2013-11-25 03:40:00,16.3,7.0,30.40,West,271,0.0,3.0,68,0.00,,,0.00,weatherlink.com 1.10,2013-11-25 08:40:00,
2013-11-25 03:59:00,16.3,8.0,30.40,WNW,288,1.0,4.0,69,0.00,,,0.00,weatherlink.com 1.10,2013-11-25 08:59:00,
2013-11-25 04:14:00,16.5,8.0,30.40,NNW,346,0.0,3.0,69,0.00,,,0.00,weatherlink.com 1.10,2013-11-25 09:14:00,
2013-11-25 04:27:00,16.3,8.0,30.41,NW,325,0.0,1.0,69,0.00,,,0.00,weatherlink.com 1.10,2013-11-25 09:27:00,
2013-11-25 04:43:00,15.7,8.0,30.42,NW,324,0.0,4.0,70,0.00,,,0.00,weatherlink.com 1.10,2013-11-25 09:43:00,
2013-11-25 04:57:00,15.4,7.0,30.43,NW,324,0.0,1.0,70,0.00,,,0.00,weatherlink.com 1.10,2013-11-25 09:57:00,
2013-11-25 05:14:00,14.8,7.0,30.43,NW,323,0.0,1.0,72,0.00,,,0.00,weatherlink.com 1.10,2013-11-25 10:14:00,
2013-11-25 05:28:00,14.4,7.0,30.43,NW,324,0.0,1.0,72,0.00,,,0.00,weatherlink.com 1.10,2013-11-25 10:28:00,
2013-11-25 05:46:00,14.3,7.0,30.43,NW,324,0.0,1.0,74,0.00,,,0.00,weatherlink.com 1.10,2013-11-25 10:46:00,
2013-11-25 05:58:00,14.1,8.0,30.44,NW,324,0.0,2.0,75,0.00,,,0.00,weatherlink.com 1.10,2013-11-25 10:58:00,
2013-11-25 06:13:00,14.1,8.0,30.44,NW,326,0.0,3.0,76,0.00,,,0.00,weatherlink.com 1.10,2013-11-25 11:13:00,
2013-11-25 06:31:00,14.3,8.0,30.44,NW,311,0.0,1.0,76,0.00,,,0.00,weatherlink.com 1.10,2013-11-25 11:31:00,
2013-11-25 06:45:00,14.4,8.0,30.45,NW,309,1.0,4.0,77,0.00,,,0.00,weatherlink.com 1.10,2013-11-25 11:45:00,
2013-11-25 07:00:00,14.5,9.0,30.46,WNW,284,0.0,4.0,77,0.00,,,0.00,weatherlink.com 1.10,2013-11-25 12:00:00,
2013-11-25 07:27:00,14.5,9.0,30.47,NW,326,0.0,0.0,77,0.00,,,0.00,weatherlink.com 1.10,2013-11-25 12:27:00,
2013-11-25 07:37:00,14.6,9.0,30.47,NW,326,0.0,2.0,77,0.00,,,0.00,weatherlink.com 1.10,2013-11-25 12:37:00,
2013-11-25 07:50:00,15.2,9.0,30.48,NW,326,0.0,0.0,77,0.00,,,0.00,weatherlink.com 1.10,2013-11-25 12:50:00,
2013-11-25 08:07:00,17.1,10.0,30.49,NW,325,2.0,3.0,74,0.00,,,0.00,weatherlink.com 1.10,2013-11-25 13:07:00,
2013-11-25 08:19:00,18.8,11.0,30.49,NNW,328,0.0,2.0,70,0.00,,,0.00,weatherlink.com 1.10,2013-11-25 13:19:00,
2013-11-25 08:35:00,20.3,11.0,30.49,SW,216,0.0,3.0,67,0.00,,,0.00,weatherlink.com 1.10,2013-11-25 13:35:00,
2013-11-25 08:52:00,21.1,11.0,30.49,WNW,300,3.0,5.0,66,0.00,,,0.00,weatherlink.com 1.10,2013-11-25 13:52:00,
2013-11-25 09:05:00,21.8,12.0,30.49,West,281,0.0,7.0,65,0.00,,,0.00,weatherlink.com 1.10,2013-11-25 14:05:00,
2013-11-25 09:19:00,22.8,13.0,30.49,WNW,292,1.0,6.0,65,0.00,,,0.00,weatherlink.com 1.10,2013-11-25 14:19:00,
2013-11-25 09:33:00,24.9,13.0,30.48,NW,315,7.0,8.0,62,0.00,,,0.00,weatherlink.com 1.10,2013-11-25 14:33:00,
2013-11-25 09:49:00,26.6,13.0,30.48,WNW,293,8.0,8.0,57,0.00,,,0.00,weatherlink.com 1.10,2013-11-25 14:49:00,
2013-11-25 10:06:00,28.9,14.0,30.48,North,355,1.0,9.0,53,0.00,,,0.00,weatherlink.com 1.10,2013-11-25 15:06:00,
2013-11-25 10:22:00,30.5,13.0,30.48,NNW,330,1.0,6.0,49,0.00,,,0.00,weatherlink.com 1.10,2013-11-25 15:22:00,
2013-11-25 10:35:00,31.3,14.0,30.48,WNW,299,0.0,6.0,48,0.00,,,0.00,weatherlink.com 1.10,2013-11-25 15:35:00,
2013-11-25 10:50:00,30.5,12.0,30.47,WSW,254,0.0,3.0,47,0.00,,,0.00,weatherlink.com 1.10,2013-11-25 15:50:00,
2013-11-25 11:07:00,30.8,13.0,30.47,NW,313,1.0,5.0,47,0.00,,,0.00,weatherlink.com 1.10,2013-11-25 16:07:00,
2013-11-25 11:24:00,32.8,13.0,30.47,WNW,292,0.0,4.0,44,0.00,,,0.00,weatherlink.com 1.10,2013-11-25 16:24:00,
2013-11-25 11:40:00,32.6,11.0,30.46,SSW,208,1.0,5.0,41,0.00,,,0.00,weatherlink.com 1.10,2013-11-25 16:40:00,
2013-11-25 11:56:00,32.9,12.0,30.46,SSW,208,0.0,4.0,43,0.00,,,0.00,weatherlink.com 1.10,2013-11-25 16:56:00,
2013-11-25 12:07:00,33.6,12.0,30.45,WSW,257,0.0,4.0,40,0.00,,,0.00,weatherlink.com 1.10,2013-11-25 17:07:00,
2013-11-25 12:22:00,34.8,13.0,30.45,West,279,0.0,5.0,40,0.00,,,0.00,weatherlink.com 1.10,2013-11-25 17:22:00,
2013-11-25 12:39:00,35.3,12.0,30.44,SW,229,1.0,3.0,39,0.00,,,0.00,weatherlink.com 1.10,2013-11-25 17:39:00,
2013-11-25 13:05:00,36.3,13.0,30.43,NNW,344,0.0,5.0,39,0.00,,,0.00,weatherlink.com 1.10,2013-11-25 18:05:00,
2013-11-25 13:15:00,37.2,14.0,30.42,SW,219,2.0,4.0,38,0.00,,,0.00,weatherlink.com 1.10,2013-11-25 18:15:00,
2013-11-25 13:26:00,37.5,14.0,30.42,West,280,2.0,3.0,38,0.00,,,0.00,weatherlink.com 1.10,2013-11-25 18:26:00,
2013-11-25 13:40:00,36.8,14.0,30.41,SSW,202,0.0,5.0,39,0.00,,,0.00,weatherlink.com 1.10,2013-11-25 18:40:00,
2013-11-25 13:54:00,34.6,12.0,30.41,SSW,200,1.0,5.0,39,0.00,,,0.00,weatherlink.com 1.10,2013-11-25 18:54:00,
2013-11-25 14:10:00,35.1,12.0,30.41,SSW,209,5.0,6.0,38,0.00,,,0.00,weatherlink.com 1.10,2013-11-25 19:10:00,
2013-11-25 14:26:00,33.6,12.0,30.41,SW,215,0.0,4.0,40,0.00,,,0.00,weatherlink.com 1.10,2013-11-25 19:26:00,
2013-11-25 14:43:00,33.9,12.0,30.41,NNW,333,0.0,6.0,40,0.00,,,0.00,weatherlink.com 1.10,2013-11-25 19:43:00,
2013-11-25 14:58:00,33.7,10.0,30.40,WSW,253,1.0,3.0,37,0.00,,,0.00,weatherlink.com 1.10,2013-11-25 19:58:00,
2013-11-25 15:11:00,32.5,11.0,30.39,SW,217,0.0,4.0,40,0.00,,,0.00,weatherlink.com 1.10,2013-11-25 20:11:00,
2013-11-25 15:31:00,31.7,11.0,30.40,SW,224,0.0,6.0,42,0.00,,,0.00,weatherlink.com 1.10,2013-11-25 20:31:00,
2013-11-25 15:42:00,31.2,10.0,30.40,SW,222,0.0,4.0,41,0.00,,,0.00,weatherlink.com 1.10,2013-11-25 20:42:00,
2013-11-25 15:57:00,30.6,10.0,30.40,SSE,163,1.0,5.0,43,0.00,,,0.00,weatherlink.com 1.10,2013-11-25 20:57:00,
2013-11-25 16:13:00,30.0,10.0,30.41,SW,221,0.0,3.0,44,0.00,,,0.00,weatherlink.com 1.10,2013-11-25 21:13:00,
2013-11-25 16:29:00,29.7,11.0,30.41,WSW,240,1.0,4.0,45,0.00,,,0.00,weatherlink.com 1.10,2013-11-25 21:29:00,
2013-11-25 16:43:00,29.5,11.0,30.41,West,269,4.0,4.0,46,0.00,,,0.00,weatherlink.com 1.10,2013-11-25 21:43:00,
2013-11-25 16:59:00,29.3,10.0,30.41,SW,229,1.0,5.0,45,0.00,,,0.00,weatherlink.com 1.10,2013-11-25 21:59:00,
2013-11-25 17:15:00,28.8,11.0,30.40,SSW,211,2.0,3.0,47,0.00,,,0.00,weatherlink.com 1.10,2013-11-25 22:15:00,
2013-11-25 17:30:00,28.2,11.0,30.39,SSW,197,0.0,1.0,48,0.00,,,0.00,weatherlink.com 1.10,2013-11-25 22:30:00,
2013-11-25 17:48:00,27.7,11.0,30.40,SSW,203,0.0,2.0,50,0.00,,,0.00,weatherlink.com 1.10,2013-11-25 22:48:00,
2013-11-25 18:15:00,28.5,11.0,30.39,SSW,210,0.0,3.0,49,0.00,,,0.00,weatherlink.com 1.10,2013-11-25 23:15:00,
2013-11-25 18:30:00,28.9,11.0,30.39,SSW,210,0.0,4.0,48,0.00,,,0.00,weatherlink.com 1.10,2013-11-25 23:30:00,
2013-11-25 18:45:00,29.2,12.0,30.39,SW,215,5.0,7.0,49,0.00,,,0.00,weatherlink.com 1.10,2013-11-25 23:45:00,
2013-11-25 19:01:00,29.5,13.0,30.40,SW,234,1.0,7.0,50,0.00,,,0.00,weatherlink.com 1.10,2013-11-26 00:01:00,
2013-11-25 19:17:00,29.6,13.0,30.39,SW,220,2.0,5.0,50,0.00,,,0.00,weatherlink.com 1.10,2013-11-26 00:17:00,
2013-11-25 19:32:00,29.7,13.0,30.39,SSW,210,0.0,6.0,51,0.00,,,0.00,weatherlink.com 1.10,2013-11-26 00:32:00,
2013-11-25 19:47:00,29.5,13.0,30.38,SW,219,3.0,7.0,51,0.00,,,0.00,weatherlink.com 1.10,2013-11-26 00:47:00,
2013-11-25 20:02:00,29.6,13.0,30.38,SW,235,1.0,6.0,51,0.00,,,0.00,weatherlink.com 1.10,2013-11-26 01:02:00,
2013-11-25 20:18:00,29.6,14.0,30.38,SW,215,1.0,12.0,52,0.00,,,0.00,weatherlink.com 1.10,2013-11-26 01:18:00,
2013-11-25 20:34:00,29.7,13.0,30.38,SSW,213,1.0,9.0,51,0.00,,,0.00,weatherlink.com 1.10,2013-11-26 01:34:00,
2013-11-25 20:48:00,29.7,13.0,30.37,SW,224,1.0,8.0,51,0.00,,,0.00,weatherlink.com 1.10,2013-11-26 01:48:00,
2013-11-25 21:03:00,29.7,13.0,30.37,WSW,254,2.0,5.0,50,0.00,,,0.00,weatherlink.com 1.10,2013-11-26 02:03:00,
2013-11-25 21:35:00,29.6,13.0,30.35,SW,229,0.0,9.0,51,0.00,,,0.00,weatherlink.com 1.10,2013-11-26 02:35:00,
2013-11-25 21:50:00,29.6,13.0,30.35,NW,323,1.0,8.0,51,0.00,,,0.00,weatherlink.com 1.10,2013-11-26 02:50:00,
2013-11-25 22:05:00,29.6,13.0,30.36,SW,217,1.0,5.0,51,0.00,,,0.00,weatherlink.com 1.10,2013-11-26 03:05:00,
2013-11-25 22:20:00,29.6,13.0,30.36,SW,227,0.0,8.0,51,0.00,,,0.00,weatherlink.com 1.10,2013-11-26 03:20:00,
2013-11-25 22:35:00,29.5,13.0,30.35,SSW,213,1.0,7.0,51,0.00,,,0.00,weatherlink.com 1.10,2013-11-26 03:35:00,
2013-11-25 22:52:00,29.5,12.0,30.35,SW,226,3.0,9.0,49,0.00,,,0.00,weatherlink.com 1.10,2013-11-26 03:52:00,
2013-11-25 23:07:00,29.5,12.0,30.36,SW,231,3.0,10.0,49,0.00,,,0.00,weatherlink.com 1.10,2013-11-26 04:07:00,
2013-11-25 23:22:00,29.6,13.0,30.36,SW,230,2.0,11.0,50,0.00,,,0.00,weatherlink.com 1.10,2013-11-26 04:22:00,
2013-11-25 23:37:00,29.4,13.0,30.35,SW,215,3.0,9.0,50,0.00,,,0.00,weatherlink.com 1.10,2013-11-26 04:37:00,
2013-11-25 23:52:00,29.3,13.0,30.36,SW,229,6.0,7.0,51,0.00,,,0.00,weatherlink.com 1.10,2013-11-26 04:52:00,